Regional Weather Roundup
Issued by NWS Charleston, SC

Current Version | Previous Version | Graphics & Text | Print | Product List | Glossary On
Versions: 1 2 3 4 5 6 7 8 9 10 11 12 13 14 15 16 17 18 19 20 21 22 23 24 25 26 27 28 29 30 31 32 33 34 35 36 37 38 39 40 41 42 43 44 45 46 47 48 49 50
000 ASUS42 KCHS 102127 RWRCHS REGIONAL WEATHER ROUNDUP NATIONAL WEATHER SERVICE CHARLESTON SC 400 PM EST WED FEB 10 2016 NOTE: "FAIR" INDICATES FEW OR NO CLOUDS BELOW 12,000 FEET WITH NO SIGNIFICANT WEATHER AND/OR OBSTRUCTIONS TO VISIBILITY. NOT ALL STATIONS ARE QUALITY CONTROLLED BY THE NATIONAL WEATHER SERVICE. USE DATA WITH CAUTION...ESPECIALLY DEWPOINT OBSERVATIONS. SCZ027-030-031-034>040-042>050-102200- ...SOUTHEAST SOUTH CAROLINA... CITY SKY/WX TMP DP RH WIND PRES REMARKS N CHARLESTON SUNNY 43 10 26 W23G32 30.01R WATERFRONT PRK N/A 42 15 33 W9G21 29.85R MOUNT PLEASANT FAIR 43 14 31 W14G24 30.01R JOHNS ISLAND FAIR 43 10 26 W18G28 30.03R PINOPOLIS N/A 39 19 45 NW21 29.92R WCI 29 MONCKS CORNER FAIR 39 7 26 NW8G21 30.01R WCI 34 SUMMERVILLE FAIR 41 16 36 SW13G28 30.03R BEAUFORT MCAS SUNNY 43 10 26 W23G32 30.06R BEAUFORT ARPT FAIR 43 12 28 W18G30 30.05R HILTON HEAD IS NOT AVBL WALTERBORO CLEAR 43 10 26 W18G26 30.05R ALLENDALE FAIR 41 10 28 VRB3G21 30.06R ...SOUTHERN MIDLANDS AND PEE DEE... CITY SKY/WX TMP DP RH WIND PRES REMARKS GEORGETOWN NOT AVBL KINGSTREE NOT AVBL ORANGEBURG SUNNY 40 7 25 NW16G26 30.02R WCI 31 BARNWELL FAIR 41 10 28 W16G33 30.06R AIKEN FAIR 36 10 35 W24G30 30.06S WCI 24 MANNING FAIR 39 10 30 W13G23 30.01R WCI 32 COLUMBIA SUNNY 40 8 26 W21G32 30.01R WCI 30 SUMTER SUNNY 39 10 29 W18G29 29.98R WCI 30 FLORENCE CLOUDY 38 15 39 W17G24 29.97R WCI 28 MYRTLE BEACH MOSUNNY 41 16 36 W12G17 29.97R N MYRTLE BEACH MOSUNNY 41 17 38 W13G24 29.95R $$ GAZ063-065-086>088-099>101-113>116-118-119-134>141-150-102200- ...SOUTHEAST GEORGIA... CITY SKY/WX TMP DP RH WIND PRES REMARKS SAVANNAH ARPT SUNNY 44 10 25 W16G31 30.08S HUNTER AAF SUNNY 44 12 26 W20G28 30.05S FORT STEWART SUNNY 44 13 28 W23G30 30.07F STATESBORO SUNNY 46 0 15 NW16G24 30.10R SYLVANIA CLEAR 43 17 36 W15G26 30.09S CLAXTON FAIR 44 19 36 W17G24 30.11R ...CSRA...CENTRAL AND FAR SOUTHEAST GEORGIA... CITY SKY/WX TMP DP RH WIND PRES REMARKS THOMSON SUNNY 40 14 34 W18G29 30.12R WCI 31 AUGUSTA-BUSH SUNNY 40 9 28 W18G26 30.06S WCI 31 AUGUSTA-DANIEL NOT AVBL SWAINSBORO FAIR 41 10 28 W13G21 30.11R VIDALIA SUNNY 43 14 31 NW16G24 30.12R EASTMAN FAIR 44 12 27 W12G23 30.16R HAZLEHURST FAIR 45 14 29 W9G20 30.13R ALMA SUNNY 44 15 31 W13G22 30.13S WAYCROSS SUNNY 48 17 29 NW12G21 30.15R JESUP FAIR 46 19 34 W15G28 30.13R BAXLEY FAIR 45 14 29 W14G28 30.14R BRUNSWICK SUNNY 46 18 31 W22G29 30.13R SAINT SIMONS SUNNY 46 13 26 W17G24 30.10S $$ SCZ027-028-034-036>038-045-046-048>050-GAZ119-141-102200- ...LAKE AND SUPPLEMENTAL COASTAL OBSERVATIONS... STATION/POSITION TIME TEMP WIND PRES WAVE SWELL AIR SEA DIR/SP/G HT/PER HT/PER/DIR (UTC) (F) (DEG/KT/KT) (MB) (FT/S) (FT/S/D) WINYAH BAY 2000 39 280/ 13 1014.0R LAKE MURRAY 2100 37 270/ 15/ 24 1015.6R ACE BASIN NERRS 2000 43 290/ 7 1017.0R FORT PULASKI 2100 42 50 270/ 23/ 26 1018.5R SAPELO ISLAND 2100 45 280/ 19 1019.0S $$ ANZ835-935-AMZ111-154-330-350-352-354-370-450-454-472-102200- ...C-MAN AND BUOY OBSERVATIONS... STATION/POSITION TIME TEMP WIND PRES WAVE SWELL AIR SEA DIR/SP/G HT/PER HT/PER/DIR (UTC) (F) (DEG/KT/KT) (MB) (FT/S) (FT/S/D) BUOY 41004 2050 43 63 280/ 25/ 31 1015.1R 7/ 7 2/15 BUOY 41008 2050 44 53 280/ 21/ 27 1018.8R 4/ 4 FOLLY BEACH CMAN 2100 42 260/ 14/ 20 1016.4R CAPERS NEARSHORE 2008 42 290/ 21/ 29 1015.3R FRIPP NEARSHORE 2000 42 300/ 19/ 21 1016.8R STATION/POSITION TIME TEMP WIND PRES WAVE SWELL AIR SEA DIR/SP/G HT/PER HT/PER/DIR (UTC) (F) (DEG/KT/KT) (MB) (FT/S) (FT/S/D) 5E ST. MARYS GA 2021 55 N/A 3/ 3 2/100/14 FRYING PAN BUOY 2100 42 59 270/ 21/ 29 1014.0R BUOY 41025 2050 42 72 280/ 14/ 19 1011.1R 6/ 6 5/210/ 8 CAPE LOOKOUT NC NOT AVBL BUOY 41002 2050 56 68 270/ 33/ 43 N/A 17/10 13/260/10 BUOY 41010 2020 58 72 1018.8F ST AUGUSTINE FL 2100 52 56 280/ 14/ 19 1020.7R $$

USA.gov is the U.S. government's official web portal to all federal, state and local government web resources and services.